Overview Statistics Trail Chart Weather Telemetry Raw packets
 

This is the latest recevied weather packets stored in our database for station/object KE8WMS. If no packets are shown the sender has not sent any weather packets the latest 10 day(s).

<< 82 83 84 85 86 87 88 >>
Time Temp. Humidity Pressure Rain* Wind** Luminosity Snow
1777240148 10° C 89% 1018 hPa 0 mm - 252 W/m² -
1777239846 10° C 90% 1017.8 hPa 0 mm - 271 W/m² -
1777239542 10° C 90% 1017.9 hPa 0 mm - 289 W/m² -
1777239239 10° C 91% 1018.1 hPa 0 mm - 304 W/m² -
1777238936 9.44° C 91% 1018 hPa 0 mm - 320 W/m² -
1777238634 10° C 91% 1017.9 hPa 0 mm - 351 W/m² -
1777238330 10° C 92% 1017.8 hPa 0 mm - 377 W/m² -
1777238027 9.44° C 91% 1017.7 hPa 0 mm - 394 W/m² -
1777237723 9.44° C 92% 1017.9 hPa 0 mm - 411 W/m² -
1777237420 9.44° C 92% 1017.7 hPa 0 mm - 183 W/m² -
1777237118 9.44° C 92% 1017.7 hPa 0 mm - 377 W/m² -
1777236815 10° C 91% 1017.9 hPa 0 mm - 438 W/m² -
1777236515 9.44° C 93% 1017.6 hPa 0 mm - 444 W/m² -
1777236212 9.44° C 93% 1017.7 hPa 0 mm - 505 W/m² -
1777235907 8.89° C 93% 1017.6 hPa 0 mm - 316 W/m² -
1777235604 8.89° C 93% 1017.5 hPa 0 mm - 634 W/m² -
1777235301 9.44° C 93% 1017.6 hPa 0 mm - 319 W/m² -
1777234997 9.44° C 94% 1017.5 hPa 0 mm - 373 W/m² -
1777234694 8.89° C 93% 1017.6 hPa 0 mm - 309 W/m² -
1777234389 9.44° C 92% 1017.6 hPa 0 mm - 416 W/m² -
1777234084 9.44° C 93% 1017.8 hPa 0 mm - 318 W/m² -
1777233780 9.44° C 93% 1017.9 hPa 0 mm - 341 W/m² -
1777233477 8.89° C 94% 1017.9 hPa 0 mm - 476 W/m² -
1777233176 9.44° C 94% 1018 hPa 0 mm - 312 W/m² -
1777232871 9.44° C 93% 1018 hPa 0 mm - 340 W/m² -

* Rain latest hour (hover to see other rain measurements)
** Current wind speed in m/s (hover to see current wind gust speed)